SCP
0 0 0 0 0 0 0 0 -0 -0 -0 0 0 0 0 0 0 0 0 0 0 0 0 0 0 0 0 0 0 0 0 0 0 0 0 0 0 0 0 0 0 0 0 0 0 0 0 0 0 -0 0 -0 0 0
0 0 0 0 0 0 0 0 -0 -0 -0 0 0 0 0 0 0 0 0 0 0 0 0 0 0 0 0 0 0 0 0 0 0 0 0 0 0 0 0 0 0 0 0 0 -0 -0 0 -0 0 0 0 0 0 0
0 0 0 0 0 0 0 0 -0 -0 -0 -0 0 0 0 0 0 0 0 0 0 0 0 0 0 0 0 0 0 0 0 0 0 0 0 0 0 0 0 0 0 0 0 0 0 0 -0 -0 0 0 -0 -0 0 0
0 0 0 0 0 0 0 0 0 -0 -0 -0 0 0 0 0 0 0 0 0 0 0 0 0 0 0 0 0 0 0 0 0 0 0 0 0 0 0 0 0 0 0 0 0 0 -0 -0 -0 -0 -0 0 -0 0 0
0 0 0 0 0 0 0 0 0 -0 -0 -0 0 0 0 0 0 0 0 0 0 0 0 0 0 0 0 0 0 0 0 0 0 0 0 0 0 0 0 0 0 0 -0 0 0 0 0 -0 -0 -0 -0 -0 -0 -0
0 0 0 0 0 0 0 0 0 -0 -0 -0 -0 0 0 0 0 0 0 0 0 0 0 0 0 0 0 0 0 0 0 0 0 0 0 0 0 0 0 0 0 0 0 0 0 0 0 0 0 -0 -0 -0 -0 -0
0 0 0 0 0 0 0 0 0 -0 -0 -0 -0 0 0 0 0 0 0 0 0 0 0 0 0 0 0 0 0 0 0 0 0 0 0 0 0 0 0 0 0 0 0 0 0 0 -0 0 0 -0 0 0 0 0
0 0 0 0 0 0 0 0 0 -0 -0 -0 -0 0 0 0 0 0 0 0 0 0 0 0 0 0 0 0 0 0 0 0 0 0 0 0 0 0 0 0 -0 0 0 0 0 0 0 0 0 0 0 0 0 0
0 0 0 0 0 0 0 0 -0 -0 0 0 -0 0 0 0 0 0 0 0 0 0 0 0 0 0 0 0 0 0 0 0 0 0 0 0 0 -0 0 0 -0 0 0 0 0 0 0 0 0 0 0 -0 0 0
0 0 0 0 0 0 0 0 -0 0 0 0 0 0 0 0 0 0 0 0 0 0 0 0 0 0 0 0 0 0 0 0 0 0 0 0 0 0 0 0 0 0 0 0 0 0 0 0 0 0 0 -0 -0 -0
0 0 0 0 0 0 0 0 0 0 0 0 0 0 0 0 0 0 0 0 0 0 0 0 0 0 0 0 0 0 0 0 0 0 0 0 -0 0 0 0 0 0 0 0 0 0 0 0 0 0 0 0 0 0
0 0 0 0 0 0 0 0 0 0 0 0 0 0 0 0 0 0 0 0 0 0 0 0 0 0 0 0 0 0 0 0 0 0 0 0 -0 0 0 0 0 0 0 0 0 0 0 0 0 0 0 0 0 0
0 0 0 -0 0 0 0 0 0 0 -0 -0 -0 0 0 0 0 0 0 0 0 0 0 0 0 0 0 0 0 0 0 0 0 0 0 0 0 0 0 0 0 0 0 0 0 0 0 0 0 0 0 0 0 0
-0 -0 -0 0 0 0 0 0 0 0 0 0 0 0 0 0 0 0 0 0 0 0 0 0 0 0 0 0 0 0 0 0 0 0 0 0 0 0 0 0 0 0 0 0 0 0 0 0 0 0 0 0 0 0
-0 -0 0 0 -0 -0 0 0 0 0 0 0 0 0 0 0 0 0 0 0 0 0 0 0 0 0 0 0 0 0 0 0 0 0 0 0 0 0 0 0 0 0 0 0 0 0 0 0 0 0 0 0 0 0
-0 0 0 -0 -0 0 0 0 0 0 -0 -0 -0 0 0 0 0 0 0 0 0 0 0 0 0 0 0 0 0 0 0 0 0 0 0 0 0 0 0 0 0 0 0 0 0 0 0 0 0 0 0 0 0 0
-0 0 0 -0 -0 0 0 0 0 0 -0 -0 -0 -0 0 0 0 0 0 0 0 0 0 0 0 0 0 0 0 0 0 0 0 0 0 0 0 0 0 0 0 0 0 0 0 0 0 0 0 0 0 0 0 0
0 0 -0 -0 0 0 0 0 0 0 -0 0 -0 -0 0 -0 0 0 0 0 0 0 0 0 0 0 0 0 0 0 0 0 0 0 0 0 0 0 0 0 0 0 0 0 0 0 0 0 0 0 0 0 0 0
0 0 0 0 0 0 0 0 0 0 0 -0 -0 -0 0 0 0 0 0 0 0 0 0 0 0 0 0 0 0 0 0 0 0 0 0 0 0 0 0 0 0 0 0 0 0 0 0 0 0 0 0 0 0 0
0 0 0 0 0 0 0 0 0 -0 0 -0 -0 0 0 0 0 0 0 0 0 0 0 0 0 0 0 0 0 0 0 0 0 0 0 0 0 0 0 0 0 0 0 0 0 0 0 0 0 0 0 0 0 0
0 0 0 0 0 0 0 0 0 0 -0 -0 -0 0 -0 0 0 0 0 0 0 0 0 0 0 0 0 0 0 0 0 0 0 0 0 0 0 0 0 0 0 0 0 0 0 0 0 0 0 0 0 0 0 0
0 0 0 0 0 0 -0 0 -0 0 -0 -0 -0 0 0 0 0 0 0 0 0 0 0 0 0 0 0 0 0 0 0 0 0 0 0 0 0 0 0 0 0 0 0 0 0 0 0 0 0 0 0 0 0 0
0 0 0 0 0 0 0 0 0 0 0 0 0 0 0 0 0 0 0 0 0 0 0 0 0 0 0 0 0 0 0 0 0 0 0 0 0 0 0 0 0 0 0 0 0 0 0 0 0 0 0 0 0 0
0 0 0 0 -0 0 -0 0 0 0 0 0 0 0 0 0 0 0 0 0 0 0 0 0 0 0 0 0 0 0 0 0 0 0 0 0 0 0 0 0 0 0 0 0 0 0 0 0 0 0 0 0 0 0
0 0 0 -0 -0 -0 0 0 0 0 -0 0 0 0 0 0 0 0 0 0 0 0 0 0 0 0 0 0 0 0 0 0 0 0 0 0 0 0 0 0 0 0 0 0 0 0 0 0 0 0 0 0 0 0
0 0 0 0 0 0 0 -0 0 0 0 0 0 0 0 0 0 0 0 0 0 0 0 0 0 0 0 0 0 0 0 0 0 0 0 0 0 0 0 0 0 0 0 0 0 0 0 0 0 0 0 0 0 0
0 -0 -0 0 0 0 0 0 0 0 0 0 0 0 0 0 0 0 0 0 0 0 0 0 0 0 0 0 0 0 0 0 0 0 0 0 0 0 0 0 0 0 0 0 0 0 0 0 0 0 0 0 0 0
-0 -0 -0 0 0 0 0 0 0 0 0 0 0 0 0 0 0 0 0 0 0 0 0 0 0 0 0 0 0 0 0 0 0 0 0 0 0 0 0 0 0 0 0 0 0 0 0 0 0 0 0 0 0 0
0 0 0 0 0 0 0 0 0 0 0 0 0 0 0 0 0 0 0 0 0 0 0 0 0 0 0 0 0 0 0 0 0 0 0 0 0 0 0 0 0 0 0 0 0 0 0 0 0 0 0 0 0 0
0 0 0 0 0 0 0 0 0 0 0 0 0 0 0 0 0 0 0 0 0 0 0 0 0 0 0 0 0 0 0 0 0 0 0 0 0 0 0 0 0 0 0 0 0 0 0 0 0 0 0 0 0 0
0 0 0 0 0 0 0 0 0 0 0 0 0 0 0 0 0 0 0 0 0 0 0 0 0 0 0 0 0 0 0 0 0 0 0 0 0 0 0 0 0 0 0 0 0 0 0 0 0 0 0 0 0 0
0 0 0 0 0 0 0 0 0 0 0 0 0 0 0 0 0 0 0 0 0 0 0 0 0 0 0 0 0 0 0 0 0 0 0 0 0 0 0 0 0 0 0 0 0 0 0 0 0 0 0 0 0 0
0 0 0 0 0 0 0 0 0 0 0 0 0 0 0 0 0 0 0 0 0 0 0 0 0 0 0 0 0 0 0 0 0 0 0 0 0 0 0 0 0 0 0 0 0 0 0 0 0 0 0 0 0 0
Wind_Speed_500mb
70 66 60 55 47 41 41 32 34 32 40 40 26 39 35 31 20 26 48 36 51 19 22 31 38 19 15 18 7 16 9 6 5 3 6 7 6 9 3 7 11 13 13 8 5 1 11 25 15 13 7 7 59 63
81 75 67 62 53 46 42 39 33 34 33 42 30 37 42 38 25 23 44 41 51 33 13 34 45 41 33 18 14 25 4 10 20 6 2 5 4 6 6 5 3 5 12 7 15 11 4 76 11 39 7 40 56 60
86 86 75 65 57 50 44 41 39 39 37 39 35 32 48 44 34 22 29 46 46 34 22 27 34 47 52 41 31 14 12 12 10 10 13 4 4 7 7 11 2 9 11 6 6 5 17 55 50 31 18 31 48 48
91 88 78 69 61 54 47 43 40 37 37 38 35 44 46 48 38 31 36 46 42 11 9 13 32 29 46 45 36 32 17 14 10 11 5 5 5 13 5 4 6 7 14 8 12 15 8 38 56 57 37 37 45 50
93 89 86 66 59 51 45 44 39 37 38 40 40 44 47 46 38 40 46 41 59 33 4 5 13 31 30 38 37 27 20 17 12 6 3 5 7 5 1 1 9 22 15 11 13 14 7 11 19 59 53 52 57 55
76 100 69 53 56 49 45 42 41 39 43 41 42 48 43 42 25 36 17 47 65 47 8 5 7 8 25 27 33 30 24 17 10 8 6 4 6 7 5 6 18 50 40 39 7 9 24 7 5 49 67 55 63 60
58 58 55 50 45 43 43 42 41 44 46 43 44 52 52 47 33 61 14 11 32 61 11 3 4 7 26 27 24 24 22 11 9 5 5 4 6 8 4 9 15 25 47 49 44 24 16 25 10 28 62 55 58 61
42 42 43 44 44 42 40 41 45 48 46 46 44 57 50 42 38 65 68 37 36 46 13 6 0 7 27 10 9 16 14 13 6 5 4 4 5 3 9 29 41 37 26 33 52 53 37 11 20 30 58 58 62 68
43 43 43 44 42 40 39 42 46 49 46 43 45 60 56 50 43 53 56 47 70 21 14 12 13 8 24 9 10 11 12 4 7 4 5 5 4 12 21 16 24 24 22 15 16 44 55 44 27 30 60 66 68 73
35 41 43 46 46 47 47 49 54 49 42 39 47 31 19 26 36 61 33 42 23 19 11 5 19 6 18 9 4 9 3 4 5 3 9 5 9 55 64 51 41 25 16 27 24 19 43 56 50 45 58 70 72 75
41 43 48 51 50 50 47 49 49 44 40 38 18 27 17 74 44 26 18 16 19 7 23 18 15 13 20 6 6 7 4 1 3 4 7 4 8 10 8 10 23 34 43 63 52 38 26 21 41 53 52 63 73 75
50 46 47 50 47 45 48 51 48 44 49 34 27 30 50 17 18 14 13 11 11 14 21 19 17 19 21 12 8 7 4 2 9 7 3 7 9 16 12 11 12 16 19 21 34 58 59 45 37 33 47 50 60 71
50 45 46 48 46 44 48 50 46 46 47 53 31 16 17 17 12 19 21 7 8 17 33 31 9 19 16 10 11 4 8 8 7 3 8 10 4 14 11 11 13 16 19 19 25 25 33 59 43 41 37 41 47 53
52 52 50 50 51 49 48 42 44 43 39 18 14 15 11 13 10 10 16 13 17 29 64 47 16 11 14 7 6 9 1 3 3 3 14 6 17 19 13 11 11 13 17 19 23 25 28 36 54 57 42 35 41 46
61 58 54 51 55 55 49 39 40 46 19 16 14 12 11 5 6 5 28 33 25 69 83 31 16 15 6 9 3 9 5 9 11 11 6 9 17 8 11 7 5 9 12 14 17 18 22 30 33 41 51 38 35 40
67 61 74 65 60 59 48 37 41 43 16 14 14 12 7 7 4 11 19 25 52 74 48 12 8 7 7 10 9 17 16 14 9 7 9 16 8 4 4 2 2 4 7 6 9 10 11 13 22 29 40 37 29 31
68 76 62 65 76 56 46 41 43 19 13 10 10 17 28 22 10 20 26 35 73 62 9 8 12 7 11 3 7 9 11 5 4 18 17 13 12 9 7 6 8 10 10 8 5 3 3 6 14 20 25 28 21 18
75 70 59 63 62 53 47 40 13 7 11 24 8 2 7 14 11 21 26 69 60 23 20 10 21 8 13 13 8 7 9 14 20 21 19 18 17 17 15 14 16 20 20 20 22 21 20 18 20 21 18 17 19 20
79 68 64 63 56 44 22 21 15 9 18 12 24 23 6 7 13 22 37 84 31 16 33 8 8 6 7 5 4 14 33 24 28 27 26 23 23 23 24 23 20 19 18 21 23 24 22 18 18 15 8 8 14 19
73 67 59 59 61 18 11 8 22 13 6 10 15 11 5 2 13 33 63 45 30 16 6 4 3 1 2 9 17 33 32 36 45 45 35 30 28 24 27 24 21 23 23 25 23 22 18 15 17 16 13 9 5 11
61 56 58 65 40 17 13 15 19 13 15 14 9 6 8 9 19 26 34 24 8 8 4 2 8 16 20 27 41 27 39 38 31 19 41 37 29 23 22 19 19 17 18 20 20 20 17 19 19 17 15 13 10 8
58 70 59 58 12 19 9 17 6 10 8 7 11 11 5 4 10 12 16 9 9 7 8 18 28 29 34 40 45 44 36 26 22 35 32 29 29 23 20 17 13 14 15 16 16 18 19 18 16 15 14 13 11 13
72 55 34 14 11 17 8 15 12 14 9 11 15 6 5 5 10 24 10 7 6 12 31 35 31 31 39 44 43 40 34 30 35 30 26 24 21 17 12 11 9 10 10 10 9 11 12 14 13 12 11 9 8 10
63 42 21 23 16 10 16 8 13 12 7 5 5 3 4 6 19 6 6 2 10 28 31 37 39 40 41 38 37 36 34 29 26 24 19 13 9 10 8 7 8 7 7 7 8 9 12 12 12 12 13 14 13 14
18 13 17 7 7 9 9 7 6 4 5 6 8 6 5 11 4 4 4 1 18 28 33 39 36 32 35 35 33 29 27 23 20 16 14 11 8 6 6 6 8 8 9 8 7 10 12 12 13 14 15 17 18 18
11 4 10 9 11 9 11 10 10 13 9 6 6 5 8 6 6 7 1 10 20 27 32 35 31 31 32 27 27 24 21 19 14 11 12 9 7 7 6 5 5 6 8 9 10 11 11 12 14 16 17 18 20 20
10 9 9 7 13 9 0 2 5 4 8 10 7 6 6 5 3 7 11 14 19 26 28 29 28 26 25 24 20 17 16 15 13 10 14 12 10 7 5 5 5 6 8 9 9 10 13 16 19 20 21 22 22 21
6 7 5 8 16 18 5 3 5 5 0 8 1 8 5 6 4 3 6 14 22 27 28 27 27 25 23 21 18 17 18 19 19 19 14 11 10 9 8 8 7 9 10 10 12 15 17 19 19 18 18 18 19 19
7 7 14 13 10 7 5 7 2 2 5 4 6 6 6 8 7 10 17 20 25 28 29 29 27 24 23 23 22 22 23 23 19 17 13 12 11 9 9 10 12 12 13 14 15 16 17 17 17 17 17 18 19 20
7 9 13 10 8 8 8 11 6 13 20 23 22 25 23 21 19 20 21 25 27 31 33 31 30 27 29 28 31 31 29 23 18 16 12 11 11 13 15 15 15 15 15 16 17 19 20 20 20 21 21 22 23 23
7 7 12 14 9 15 36 46 46 38 22 28 33 36 24 22 26 22 20 23 27 34 37 37 36 34 32 31 28 27 28 23 19 17 16 16 17 18 18 17 18 21 23 23 24 25 24 24 26 27 29 32 33 32
9 9 8 9 7 24 14 8 8 11 9 11 12 12 12 11 10 8 16 23 28 35 35 33 31 34 32 29 24 23 25 25 23 22 22 22 21 23 24 26 29 28 27 29 32 34 32 34 36 36 38 39 38 37
12 14 16 18 10 8 12 12 8 11 12 8 8 7 8 8 9 11 21 25 27 30 33 34 32 31 31 32 30 29 29 29 29 29 28 29 29 32 34 36 36 34 35 39 41 40 40 40 43 42 41 41 41 40
Wind_Direction_500mb
249 250 257 258 259 260 267 271 277 286 288 300 274 239 246 252 265 299 240 256 229 216 230 216 212 180 170 202 170 150 120 192 73 164 156 205 170 210 98 193 180 173 157 196 147 207 303 159 114 170 207 165 173 176
251 247 248 251 254 256 258 266 269 275 284 295 267 239 236 246 250 295 244 245 231 227 255 229 224 224 199 202 220 190 270 169 199 97 223 126 144 156 167 267 179 282 192 186 189 214 203 180 183 208 234 169 181 182
249 240 240 243 246 248 251 258 264 270 276 286 269 261 234 235 242 264 272 247 220 229 254 235 228 225 219 213 214 211 230 219 216 210 162 170 179 131 164 238 202 243 180 219 35 277 216 202 207 191 204 190 183 186
243 238 233 235 238 241 246 251 255 262 267 278 288 252 240 231 241 260 252 250 223 193 229 218 225 219 222 220 209 222 245 220 211 193 167 145 158 189 219 189 189 200 143 194 264 266 243 230 221 215 203 194 187 183
242 243 225 222 227 236 242 246 252 256 260 270 287 264 234 229 238 249 262 260 232 213 217 191 230 224 217 212 203 214 225 205 197 186 147 223 158 146 319 3 241 189 187 175 221 231 206 165 216 210 202 197 193 190
247 220 210 214 219 228 236 242 252 255 262 266 276 263 250 220 276 248 262 255 220 224 238 193 213 210 205 203 197 193 197 215 223 223 222 224 201 182 144 227 254 210 213 213 222 215 226 216 19 198 204 197 196 197
199 196 203 215 222 225 233 241 249 254 257 263 269 258 244 220 266 217 218 216 217 208 204 145 122 135 161 157 173 182 192 211 217 228 232 210 200 205 148 232 254 241 232 229 232 236 265 247 213 196 202 203 198 199
194 202 210 218 224 228 234 240 244 250 255 257 265 260 238 244 252 227 232 255 195 177 192 138 332 157 169 159 142 165 169 191 243 229 226 204 190 213 257 246 251 253 259 247 236 234 234 245 227 188 196 202 203 199
203 207 214 221 227 235 238 244 246 249 250 258 269 260 287 255 220 210 223 236 177 183 185 164 158 189 167 139 139 147 166 169 227 207 220 152 209 225 231 234 267 262 236 231 245 229 229 234 241 221 195 199 209 207
222 226 232 234 235 235 237 239 241 239 245 253 260 273 230 189 187 182 150 178 173 207 219 144 133 145 156 142 131 120 155 168 212 238 145 190 256 251 253 253 256 251 277 246 242 225 219 225 228 229 212 210 211 213
229 233 234 236 231 232 233 234 234 234 235 236 243 232 223 151 158 173 167 174 183 203 189 158 160 134 174 134 143 200 160 120 200 226 157 261 270 241 210 221 248 254 249 244 247 247 253 249 240 234 225 218 215 216
232 237 230 227 224 227 232 230 226 228 228 226 245 275 163 193 181 171 172 179 189 201 159 144 162 127 140 141 113 164 157 141 230 138 95 262 249 215 231 237 270 262 258 251 243 244 242 243 241 245 233 229 222 222
231 231 230 221 220 225 228 229 228 228 234 246 266 263 188 205 189 165 174 203 172 163 161 158 150 125 124 133 92 140 168 203 133 57 233 234 227 196 223 238 268 267 253 240 242 250 246 227 229 229 233 226 227 225
230 230 227 224 218 223 228 231 225 219 219 210 226 252 224 160 219 194 182 171 144 154 156 146 129 124 124 121 130 166 357 91 72 270 236 241 206 202 225 253 268 277 280 273 258 248 240 233 231 233 237 232 230 227
226 225 225 225 223 225 226 228 219 219 222 224 239 242 214 210 111 137 130 124 133 153 146 119 87 100 101 120 106 113 68 234 217 228 227 166 167 216 254 259 287 297 295 285 274 262 247 236 230 224 223 231 232 224
223 228 225 222 214 224 222 225 218 217 233 229 261 272 3 172 110 146 154 131 149 150 149 122 115 115 129 131 147 213 152 215 238 212 165 150 159 183 259 288 337 339 326 307 283 266 245 229 223 220 213 213 223 228
218 223 228 214 210 216 213 217 220 200 220 252 235 238 254 283 209 170 170 165 157 156 164 135 141 157 109 125 236 197 204 226 157 138 144 149 137 131 113 67 62 61 44 29 44 62 109 135 156 173 187 202 217 231
213 217 213 200 199 199 206 209 199 236 228 245 268 205 232 281 226 170 168 162 162 196 165 184 133 144 168 177 234 212 154 133 140 140 140 137 126 116 106 87 74 77 80 82 85 95 107 125 137 142 158 189 219 232
199 199 193 190 188 185 188 160 167 234 244 268 279 265 258 307 250 204 177 168 177 170 139 135 117 163 205 190 157 155 158 150 146 132 125 120 117 115 107 94 84 86 94 90 89 88 86 90 95 109 138 186 219 238
192 192 190 182 181 166 164 154 190 237 216 221 232 229 131 273 194 168 165 166 155 153 57 42 117 4 35 155 134 150 153 153 146 130 121 113 108 104 100 98 94 86 82 78 72 69 65 65 70 65 63 50 351 295
177 177 169 165 170 166 191 179 207 232 232 237 218 168 75 147 138 157 160 153 107 55 100 43 133 126 130 131 133 135 142 145 139 140 141 127 119 112 104 96 84 77 65 63 60 55 49 47 50 50 46 44 26 347
172 168 161 173 141 186 245 219 254 187 198 197 154 123 164 193 143 143 136 66 73 96 119 143 135 129 130 134 138 143 143 150 141 138 132 128 125 124 122 106 89 67 54 43 36 36 29 22 17 13 9 3 347 331
159 159 166 166 144 171 219 199 192 204 178 178 151 185 181 150 138 141 76 66 116 131 137 141 141 137 134 129 136 135 131 134 136 136 134 135 132 119 100 82 64 49 47 43 37 34 32 33 25 17 9 355 350 336
166 155 173 188 180 168 162 204 216 178 122 126 124 164 219 137 158 71 107 101 132 142 146 147 145 139 133 133 135 133 133 135 138 139 140 137 137 124 102 73 58 50 49 49 42 39 36 24 9 3 352 344 346 342
120 159 179 161 141 107 197 192 185 89 130 144 165 176 230 170 119 102 122 219 151 149 152 154 155 153 144 140 139 142 142 141 141 149 151 143 133 119 104 87 71 61 54 32 30 31 28 12 2 355 351 348 347 342
131 138 183 156 143 187 195 179 181 168 139 168 224 174 157 110 108 140 9 157 165 160 160 166 165 160 159 155 145 145 144 140 135 138 137 138 133 119 117 99 74 45 37 24 16 27 22 11 6 2 0 356 354 351
140 194 128 129 126 119 184 70 143 170 131 143 183 138 185 144 108 102 139 156 160 160 162 164 169 170 165 157 157 148 144 156 160 148 140 130 125 121 106 83 48 38 36 36 31 30 24 17 14 10 6 4 3 358
48 67 165 103 74 54 305 342 56 77 146 323 219 60 77 49 115 130 140 144 149 153 154 155 159 159 155 155 157 163 167 165 157 153 150 127 110 104 97 88 79 68 56 44 36 31 29 24 17 13 10 10 11 9
97 90 89 59 74 84 31 16 94 59 323 353 86 93 101 67 75 117 132 138 140 143 148 147 140 137 143 147 148 149 153 150 153 149 139 127 104 89 86 74 64 56 50 45 43 40 36 34 32 33 35 34 33 32
90 124 129 121 89 47 15 35 66 79 77 90 103 103 87 87 85 109 123 135 141 141 140 137 132 135 137 138 133 133 135 140 147 148 146 134 114 95 81 73 68 66 64 60 59 59 60 58 55 56 53 55 54 50
76 82 78 63 87 104 108 92 77 63 55 59 89 103 115 119 91 88 113 129 140 146 146 141 135 129 131 133 136 140 133 131 128 124 118 111 100 91 88 88 87 81 77 75 76 77 74 79 76 76 74 70 67 65
53 53 121 112 128 166 156 118 85 86 78 68 65 95 95 95 84 108 132 131 142 149 149 144 138 131 130 130 129 126 123 120 119 114 107 103 105 104 100 94 88 86 87 90 89 87 86 84 83 80 79 79 78 77
92 79 85 111 123 172 149 124 103 102 75 75 66 68 84 94 117 132 151 142 137 144 144 141 141 137 132 129 126 122 120 120 120 117 114 111 108 105 102 97 94 95 96 95 93 91 91 89 87 85 84 83 81 79
Wind_Speed_850mb
70 66 60 55 47 41 41 32 34 32 40 40 26 39 35 31 20 26 48 36 51 19 22 31 38 19 15 18 7 16 9 6 5 3 6 7 6 9 3 7 11 13 13 8 5 1 11 25 15 13 7 7 59 63
81 75 67 62 53 46 42 39 33 34 33 42 30 37 42 38 25 23 44 41 51 33 13 34 45 41 33 18 14 25 4 10 20 6 2 5 4 6 6 5 3 5 12 7 15 11 4 76 11 39 7 40 56 60
86 86 75 65 57 50 44 41 39 39 37 39 35 32 48 44 34 22 29 46 46 34 22 27 34 47 52 41 31 14 12 12 10 10 13 4 4 7 7 11 2 9 11 6 6 5 17 55 50 31 18 31 48 48
91 88 78 69 61 54 47 43 40 37 37 38 35 44 46 48 38 31 36 46 42 11 9 13 32 29 46 45 36 32 17 14 10 11 5 5 5 13 5 4 6 7 14 8 12 15 8 38 56 57 37 37 45 50
93 89 86 66 59 51 45 44 39 37 38 40 40 44 47 46 38 40 46 41 59 33 4 5 13 31 30 38 37 27 20 17 12 6 3 5 7 5 1 1 9 22 15 11 13 14 7 11 19 59 53 52 57 55
76 100 69 53 56 49 45 42 41 39 43 41 42 48 43 42 25 36 17 47 65 47 8 5 7 8 25 27 33 30 24 17 10 8 6 4 6 7 5 6 18 50 40 39 7 9 24 7 5 49 67 55 63 60
58 58 55 50 45 43 43 42 41 44 46 43 44 52 52 47 33 61 14 11 32 61 11 3 4 7 26 27 24 24 22 11 9 5 5 4 6 8 4 9 15 25 47 49 44 24 16 25 10 28 62 55 58 61
42 42 43 44 44 42 40 41 45 48 46 46 44 57 50 42 38 65 68 37 36 46 13 6 0 7 27 10 9 16 14 13 6 5 4 4 5 3 9 29 41 37 26 33 52 53 37 11 20 30 58 58 62 68
43 43 43 44 42 40 39 42 46 49 46 43 45 60 56 50 43 53 56 47 70 21 14 12 13 8 24 9 10 11 12 4 7 4 5 5 4 12 21 16 24 24 22 15 16 44 55 44 27 30 60 66 68 73
35 41 43 46 46 47 47 49 54 49 42 39 47 31 19 26 36 61 33 42 23 19 11 5 19 6 18 9 4 9 3 4 5 3 9 5 9 55 64 51 41 25 16 27 24 19 43 56 50 45 58 70 72 75
41 43 48 51 50 50 47 49 49 44 40 38 18 27 17 74 44 26 18 16 19 7 23 18 15 13 20 6 6 7 4 1 3 4 7 4 8 10 8 10 23 34 43 63 52 38 26 21 41 53 52 63 73 75
50 46 47 50 47 45 48 51 48 44 49 34 27 30 50 17 18 14 13 11 11 14 21 19 17 19 21 12 8 7 4 2 9 7 3 7 9 16 12 11 12 16 19 21 34 58 59 45 37 33 47 50 60 71
50 45 46 48 46 44 48 50 46 46 47 53 31 16 17 17 12 19 21 7 8 17 33 31 9 19 16 10 11 4 8 8 7 3 8 10 4 14 11 11 13 16 19 19 25 25 33 59 43 41 37 41 47 53
52 52 50 50 51 49 48 42 44 43 39 18 14 15 11 13 10 10 16 13 17 29 64 47 16 11 14 7 6 9 1 3 3 3 14 6 17 19 13 11 11 13 17 19 23 25 28 36 54 57 42 35 41 46
61 58 54 51 55 55 49 39 40 46 19 16 14 12 11 5 6 5 28 33 25 69 83 31 16 15 6 9 3 9 5 9 11 11 6 9 17 8 11 7 5 9 12 14 17 18 22 30 33 41 51 38 35 40
67 61 74 65 60 59 48 37 41 43 16 14 14 12 7 7 4 11 19 25 52 74 48 12 8 7 7 10 9 17 16 14 9 7 9 16 8 4 4 2 2 4 7 6 9 10 11 13 22 29 40 37 29 31
68 76 62 65 76 56 46 41 43 19 13 10 10 17 28 22 10 20 26 35 73 62 9 8 12 7 11 3 7 9 11 5 4 18 17 13 12 9 7 6 8 10 10 8 5 3 3 6 14 20 25 28 21 18
75 70 59 63 62 53 47 40 13 7 11 24 8 2 7 14 11 21 26 69 60 23 20 10 21 8 13 13 8 7 9 14 20 21 19 18 17 17 15 14 16 20 20 20 22 21 20 18 20 21 18 17 19 20
79 68 64 63 56 44 22 21 15 9 18 12 24 23 6 7 13 22 37 84 31 16 33 8 8 6 7 5 4 14 33 24 28 27 26 23 23 23 24 23 20 19 18 21 23 24 22 18 18 15 8 8 14 19
73 67 59 59 61 18 11 8 22 13 6 10 15 11 5 2 13 33 63 45 30 16 6 4 3 1 2 9 17 33 32 36 45 45 35 30 28 24 27 24 21 23 23 25 23 22 18 15 17 16 13 9 5 11
61 56 58 65 40 17 13 15 19 13 15 14 9 6 8 9 19 26 34 24 8 8 4 2 8 16 20 27 41 27 39 38 31 19 41 37 29 23 22 19 19 17 18 20 20 20 17 19 19 17 15 13 10 8
58 70 59 58 12 19 9 17 6 10 8 7 11 11 5 4 10 12 16 9 9 7 8 18 28 29 34 40 45 44 36 26 22 35 32 29 29 23 20 17 13 14 15 16 16 18 19 18 16 15 14 13 11 13
72 55 34 14 11 17 8 15 12 14 9 11 15 6 5 5 10 24 10 7 6 12 31 35 31 31 39 44 43 40 34 30 35 30 26 24 21 17 12 11 9 10 10 10 9 11 12 14 13 12 11 9 8 10
63 42 21 23 16 10 16 8 13 12 7 5 5 3 4 6 19 6 6 2 10 28 31 37 39 40 41 38 37 36 34 29 26 24 19 13 9 10 8 7 8 7 7 7 8 9 12 12 12 12 13 14 13 14
18 13 17 7 7 9 9 7 6 4 5 6 8 6 5 11 4 4 4 1 18 28 33 39 36 32 35 35 33 29 27 23 20 16 14 11 8 6 6 6 8 8 9 8 7 10 12 12 13 14 15 17 18 18
11 4 10 9 11 9 11 10 10 13 9 6 6 5 8 6 6 7 1 10 20 27 32 35 31 31 32 27 27 24 21 19 14 11 12 9 7 7 6 5 5 6 8 9 10 11 11 12 14 16 17 18 20 20
10 9 9 7 13 9 0 2 5 4 8 10 7 6 6 5 3 7 11 14 19 26 28 29 28 26 25 24 20 17 16 15 13 10 14 12 10 7 5 5 5 6 8 9 9 10 13 16 19 20 21 22 22 21
6 7 5 8 16 18 5 3 5 5 0 8 1 8 5 6 4 3 6 14 22 27 28 27 27 25 23 21 18 17 18 19 19 19 14 11 10 9 8 8 7 9 10 10 12 15 17 19 19 18 18 18 19 19
7 7 14 13 10 7 5 7 2 2 5 4 6 6 6 8 7 10 17 20 25 28 29 29 27 24 23 23 22 22 23 23 19 17 13 12 11 9 9 10 12 12 13 14 15 16 17 17 17 17 17 18 19 20
7 9 13 10 8 8 8 11 6 13 20 23 22 25 23 21 19 20 21 25 27 31 33 31 30 27 29 28 31 31 29 23 18 16 12 11 11 13 15 15 15 15 15 16 17 19 20 20 20 21 21 22 23 23
7 7 12 14 9 15 36 46 46 38 22 28 33 36 24 22 26 22 20 23 27 34 37 37 36 34 32 31 28 27 28 23 19 17 16 16 17 18 18 17 18 21 23 23 24 25 24 24 26 27 29 32 33 32
9 9 8 9 7 24 14 8 8 11 9 11 12 12 12 11 10 8 16 23 28 35 35 33 31 34 32 29 24 23 25 25 23 22 22 22 21 23 24 26 29 28 27 29 32 34 32 34 36 36 38 39 38 37
12 14 16 18 10 8 12 12 8 11 12 8 8 7 8 8 9 11 21 25 27 30 33 34 32 31 31 32 30 29 29 29 29 29 28 29 29 32 34 36 36 34 35 39 41 40 40 40 43 42 41 41 41 40
Wind_Direction_850mb
249 250 257 258 259 260 267 271 277 286 288 300 274 239 246 252 265 299 240 256 229 216 230 216 212 180 170 202 170 150 120 192 73 164 156 205 170 210 98 193 180 173 157 196 147 207 303 159 114 170 207 165 173 176
251 247 248 251 254 256 258 266 269 275 284 295 267 239 236 246 250 295 244 245 231 227 255 229 224 224 199 202 220 190 270 169 199 97 223 126 144 156 167 267 179 282 192 186 189 214 203 180 183 208 234 169 181 182
249 240 240 243 246 248 251 258 264 270 276 286 269 261 234 235 242 264 272 247 220 229 254 235 228 225 219 213 214 211 230 219 216 210 162 170 179 131 164 238 202 243 180 219 35 277 216 202 207 191 204 190 183 186
243 238 233 235 238 241 246 251 255 262 267 278 288 252 240 231 241 260 252 250 223 193 229 218 225 219 222 220 209 222 245 220 211 193 167 145 158 189 219 189 189 200 143 194 264 266 243 230 221 215 203 194 187 183
242 243 225 222 227 236 242 246 252 256 260 270 287 264 234 229 238 249 262 260 232 213 217 191 230 224 217 212 203 214 225 205 197 186 147 223 158 146 319 3 241 189 187 175 221 231 206 165 216 210 202 197 193 190
247 220 210 214 219 228 236 242 252 255 262 266 276 263 250 220 276 248 262 255 220 224 238 193 213 210 205 203 197 193 197 215 223 223 222 224 201 182 144 227 254 210 213 213 222 215 226 216 19 198 204 197 196 197
199 196 203 215 222 225 233 241 249 254 257 263 269 258 244 220 266 217 218 216 217 208 204 145 122 135 161 157 173 182 192 211 217 228 232 210 200 205 148 232 254 241 232 229 232 236 265 247 213 196 202 203 198 199
194 202 210 218 224 228 234 240 244 250 255 257 265 260 238 244 252 227 232 255 195 177 192 138 332 157 169 159 142 165 169 191 243 229 226 204 190 213 257 246 251 253 259 247 236 234 234 245 227 188 196 202 203 199
203 207 214 221 227 235 238 244 246 249 250 258 269 260 287 255 220 210 223 236 177 183 185 164 158 189 167 139 139 147 166 169 227 207 220 152 209 225 231 234 267 262 236 231 245 229 229 234 241 221 195 199 209 207
222 226 232 234 235 235 237 239 241 239 245 253 260 273 230 189 187 182 150 178 173 207 219 144 133 145 156 142 131 120 155 168 212 238 145 190 256 251 253 253 256 251 277 246 242 225 219 225 228 229 212 210 211 213
229 233 234 236 231 232 233 234 234 234 235 236 243 232 223 151 158 173 167 174 183 203 189 158 160 134 174 134 143 200 160 120 200 226 157 261 270 241 210 221 248 254 249 244 247 247 253 249 240 234 225 218 215 216
232 237 230 227 224 227 232 230 226 228 228 226 245 275 163 193 181 171 172 179 189 201 159 144 162 127 140 141 113 164 157 141 230 138 95 262 249 215 231 237 270 262 258 251 243 244 242 243 241 245 233 229 222 222
231 231 230 221 220 225 228 229 228 228 234 246 266 263 188 205 189 165 174 203 172 163 161 158 150 125 124 133 92 140 168 203 133 57 233 234 227 196 223 238 268 267 253 240 242 250 246 227 229 229 233 226 227 225
230 230 227 224 218 223 228 231 225 219 219 210 226 252 224 160 219 194 182 171 144 154 156 146 129 124 124 121 130 166 357 91 72 270 236 241 206 202 225 253 268 277 280 273 258 248 240 233 231 233 237 232 230 227
226 225 225 225 223 225 226 228 219 219 222 224 239 242 214 210 111 137 130 124 133 153 146 119 87 100 101 120 106 113 68 234 217 228 227 166 167 216 254 259 287 297 295 285 274 262 247 236 230 224 223 231 232 224
223 228 225 222 214 224 222 225 218 217 233 229 261 272 3 172 110 146 154 131 149 150 149 122 115 115 129 131 147 213 152 215 238 212 165 150 159 183 259 288 337 339 326 307 283 266 245 229 223 220 213 213 223 228
218 223 228 214 210 216 213 217 220 200 220 252 235 238 254 283 209 170 170 165 157 156 164 135 141 157 109 125 236 197 204 226 157 138 144 149 137 131 113 67 62 61 44 29 44 62 109 135 156 173 187 202 217 231
213 217 213 200 199 199 206 209 199 236 228 245 268 205 232 281 226 170 168 162 162 196 165 184 133 144 168 177 234 212 154 133 140 140 140 137 126 116 106 87 74 77 80 82 85 95 107 125 137 142 158 189 219 232
199 199 193 190 188 185 188 160 167 234 244 268 279 265 258 307 250 204 177 168 177 170 139 135 117 163 205 190 157 155 158 150 146 132 125 120 117 115 107 94 84 86 94 90 89 88 86 90 95 109 138 186 219 238
192 192 190 182 181 166 164 154 190 237 216 221 232 229 131 273 194 168 165 166 155 153 57 42 117 4 35 155 134 150 153 153 146 130 121 113 108 104 100 98 94 86 82 78 72 69 65 65 70 65 63 50 351 295
177 177 169 165 170 166 191 179 207 232 232 237 218 168 75 147 138 157 160 153 107 55 100 43 133 126 130 131 133 135 142 145 139 140 141 127 119 112 104 96 84 77 65 63 60 55 49 47 50 50 46 44 26 347
172 168 161 173 141 186 245 219 254 187 198 197 154 123 164 193 143 143 136 66 73 96 119 143 135 129 130 134 138 143 143 150 141 138 132 128 125 124 122 106 89 67 54 43 36 36 29 22 17 13 9 3 347 331
159 159 166 166 144 171 219 199 192 204 178 178 151 185 181 150 138 141 76 66 116 131 137 141 141 137 134 129 136 135 131 134 136 136 134 135 132 119 100 82 64 49 47 43 37 34 32 33 25 17 9 355 350 336
166 155 173 188 180 168 162 204 216 178 122 126 124 164 219 137 158 71 107 101 132 142 146 147 145 139 133 133 135 133 133 135 138 139 140 137 137 124 102 73 58 50 49 49 42 39 36 24 9 3 352 344 346 342
120 159 179 161 141 107 197 192 185 89 130 144 165 176 230 170 119 102 122 219 151 149 152 154 155 153 144 140 139 142 142 141 141 149 151 143 133 119 104 87 71 61 54 32 30 31 28 12 2 355 351 348 347 342
131 138 183 156 143 187 195 179 181 168 139 168 224 174 157 110 108 140 9 157 165 160 160 166 165 160 159 155 145 145 144 140 135 138 137 138 133 119 117 99 74 45 37 24 16 27 22 11 6 2 0 356 354 351
140 194 128 129 126 119 184 70 143 170 131 143 183 138 185 144 108 102 139 156 160 160 162 164 169 170 165 157 157 148 144 156 160 148 140 130 125 121 106 83 48 38 36 36 31 30 24 17 14 10 6 4 3 358
48 67 165 103 74 54 305 342 56 77 146 323 219 60 77 49 115 130 140 144 149 153 154 155 159 159 155 155 157 163 167 165 157 153 150 127 110 104 97 88 79 68 56 44 36 31 29 24 17 13 10 10 11 9
97 90 89 59 74 84 31 16 94 59 323 353 86 93 101 67 75 117 132 138 140 143 148 147 140 137 143 147 148 149 153 150 153 149 139 127 104 89 86 74 64 56 50 45 43 40 36 34 32 33 35 34 33 32
90 124 129 121 89 47 15 35 66 79 77 90 103 103 87 87 85 109 123 135 141 141 140 137 132 135 137 138 133 133 135 140 147 148 146 134 114 95 81 73 68 66 64 60 59 59 60 58 55 56 53 55 54 50
76 82 78 63 87 104 108 92 77 63 55 59 89 103 115 119 91 88 113 129 140 146 146 141 135 129 131 133 136 140 133 131 128 124 118 111 100 91 88 88 87 81 77 75 76 77 74 79 76 76 74 70 67 65
53 53 121 112 128 166 156 118 85 86 78 68 65 95 95 95 84 108 132 131 142 149 149 144 138 131 130 130 129 126 123 120 119 114 107 103 105 104 100 94 88 86 87 90 89 87 86 84 83 80 79 79 78 77
92 79 85 111 123 172 149 124 103 102 75 75 66 68 84 94 117 132 151 142 137 144 144 141 141 137 132 129 126 122 120 120 120 117 114 111 108 105 102 97 94 95 96 95 93 91 91 89 87 85 84 83 81 79